Time,TemperatureF,DewpointF,PressureIn,WindDirection,WindDirectionDegrees,WindSpeedMPH,WindSpeedGustMPH,Humidity,HourlyPrecipIn,Conditions,Clouds,dailyrainin,SolarRadiationWatts/m^2,SoftwareType,DateUTC
2013-12-14 02:53:00,28.0,28.0,-100.00,SSE,153,13.0,13.0,100,0.00,,,0.00,0.800000,,2013-12-14 11:53:00,
2013-12-14 03:01:00,28.0,28.0,-100.00,SSE,153,13.0,13.0,100,0.00,,,0.00,0.800000,,2013-12-14 12:01:00,
2013-12-14 03:53:00,28.0,27.0,-100.00,SSE,147,11.0,17.0,97,0.00,,,0.00,0.800000,,2013-12-14 12:53:00,
2013-12-14 04:01:00,28.0,27.0,-100.00,SSE,147,11.0,17.0,97,0.00,,,0.00,0.800000,,2013-12-14 13:01:00,
2013-12-14 04:52:00,27.0,27.0,-100.00,SE,133,12.0,18.0,97,0.00,,,0.00,0.800000,,2013-12-14 13:52:00,
2013-12-14 05:01:00,27.0,27.0,-100.00,SE,133,12.0,18.0,97,0.00,,,0.00,0.800000,,2013-12-14 14:01:00,
2013-12-14 05:11:00,27.0,27.0,-100.00,SE,133,12.0,18.0,97,0.00,,,0.00,0.800000,,2013-12-14 14:11:00,
2013-12-14 05:52:00,27.0,25.0,-100.00,SE,129,9.0,17.0,92,0.00,,,0.00,0.800000,,2013-12-14 14:52:00,
2013-12-14 06:02:00,27.0,25.0,-100.00,SE,129,9.0,17.0,92,0.00,,,0.00,0.800000,,2013-12-14 15:02:00,
2013-12-14 06:11:00,27.0,25.0,-100.00,SE,129,9.0,17.0,92,0.00,,,0.00,0.800000,,2013-12-14 15:11:00,
2013-12-14 06:22:00,27.0,25.0,-100.00,SE,129,9.0,17.0,92,0.00,,,0.00,0.800000,,2013-12-14 15:22:00,
2013-12-14 06:54:00,28.0,23.0,-100.00,SE,129,19.0,19.0,81,0.00,,,0.00,0.800000,,2013-12-14 15:54:00,
2013-12-14 07:04:00,28.0,23.0,-100.00,SE,129,19.0,19.0,81,0.00,,,0.00,0.800000,,2013-12-14 16:04:00,
2013-12-14 07:13:00,28.0,23.0,-100.00,SE,129,19.0,19.0,81,0.00,,,0.00,0.800000,,2013-12-14 16:13:00,
2013-12-14 07:23:00,28.0,23.0,-100.00,SE,129,19.0,19.0,81,0.00,,,0.00,0.800000,,2013-12-14 16:23:00,
2013-12-14 07:53:00,28.0,21.0,-100.00,SE,143,16.0,26.0,74,0.00,,,0.00,0.800000,,2013-12-14 16:53:00,
2013-12-14 08:03:00,28.0,21.0,-100.00,SE,143,16.0,26.0,74,0.00,,,0.00,0.800000,,2013-12-14 17:03:00,
2013-12-14 08:12:00,28.0,21.0,-100.00,SE,143,16.0,26.0,74,0.00,,,0.00,0.800000,,2013-12-14 17:12:00,
2013-12-14 08:22:00,28.0,21.0,-100.00,SE,143,16.0,26.0,74,0.00,,,0.00,0.800000,,2013-12-14 17:22:00,
2013-12-14 08:53:00,27.0,18.0,-100.00,SW,223,4.0,26.0,68,0.00,,,0.00,0.800000,,2013-12-14 17:53:00,
2013-12-14 09:02:00,27.0,18.0,-100.00,SW,223,4.0,26.0,68,0.00,,,0.00,0.800000,,2013-12-14 18:02:00,
2013-12-14 09:11:00,27.0,18.0,-100.00,SW,223,4.0,26.0,68,0.00,,,0.00,0.800000,,2013-12-14 18:11:00,
2013-12-14 09:22:00,27.0,18.0,-100.00,SW,223,4.0,26.0,68,0.00,,,0.00,0.800000,,2013-12-14 18:22:00,
2013-12-14 09:52:00,27.0,17.0,-100.00,NNW,334,3.0,10.0,64,0.00,,,0.00,0.800000,,2013-12-14 18:52:00,
2013-12-14 10:01:00,27.0,17.0,-100.00,NNW,334,3.0,10.0,64,0.00,,,0.00,0.800000,,2013-12-14 19:01:00,
2013-12-14 10:12:00,27.0,17.0,-100.00,NNW,334,3.0,10.0,64,0.00,,,0.00,0.800000,,2013-12-14 19:12:00,
2013-12-14 10:21:00,27.0,17.0,-100.00,NNW,334,3.0,10.0,64,0.00,,,0.00,0.800000,,2013-12-14 19:21:00,
2013-12-14 10:52:00,27.0,18.0,-100.00,NW,308,8.0,10.0,68,0.00,,,0.00,3.700000,,2013-12-14 19:52:00,
2013-12-14 11:01:00,27.0,18.0,-100.00,NW,308,8.0,10.0,68,0.00,,,0.00,3.700000,,2013-12-14 20:01:00,
2013-12-14 11:11:00,27.0,18.0,-100.00,NW,308,8.0,10.0,68,0.00,,,0.00,3.700000,,2013-12-14 20:11:00,
2013-12-14 11:22:00,27.0,18.0,-100.00,NW,308,8.0,10.0,68,0.00,,,0.00,3.700000,,2013-12-14 20:22:00,
2013-12-14 11:53:00,27.0,15.0,-100.00,NNW,335,4.0,12.0,60,0.00,,,0.00,19.299999,,2013-12-14 20:53:00,
2013-12-14 12:03:00,27.0,15.0,-100.00,NNW,335,4.0,12.0,60,0.00,,,0.00,19.299999,,2013-12-14 21:03:00,
2013-12-14 12:11:00,27.0,15.0,-100.00,NNW,335,4.0,12.0,60,0.00,,,0.00,19.299999,,2013-12-14 21:11:00,
2013-12-14 12:22:00,27.0,15.0,-100.00,NNW,335,4.0,12.0,60,0.00,,,0.00,19.299999,,2013-12-14 21:22:00,
2013-12-14 12:54:00,27.0,18.0,-100.00,West,278,4.0,11.0,68,0.00,,,0.00,70.400002,,2013-12-14 21:54:00,
2013-12-14 13:03:00,27.0,18.0,-100.00,West,278,4.0,11.0,68,0.00,,,0.00,70.400002,,2013-12-14 22:03:00,
2013-12-14 13:13:00,27.0,18.0,-100.00,West,278,4.0,11.0,68,0.00,,,0.00,70.400002,,2013-12-14 22:13:00,
2013-12-14 13:23:00,27.0,18.0,-100.00,West,278,4.0,11.0,68,0.00,,,0.00,70.400002,,2013-12-14 22:23:00,
2013-12-14 13:52:00,28.0,16.0,-100.00,NNE,32,5.0,13.0,59,0.00,,,0.00,43.200001,,2013-12-14 22:52:00,
2013-12-14 14:02:00,28.0,16.0,-100.00,NNE,32,5.0,13.0,59,0.00,,,0.00,43.200001,,2013-12-14 23:02:00,
2013-12-14 14:12:00,28.0,16.0,-100.00,NNE,32,5.0,13.0,59,0.00,,,0.00,43.200001,,2013-12-14 23:12:00,
2013-12-14 14:22:00,28.0,16.0,-100.00,NNE,32,5.0,13.0,59,0.00,,,0.00,43.200001,,2013-12-14 23:22:00,
2013-12-14 14:53:00,26.0,17.0,-100.00,WNW,291,7.0,11.0,68,0.00,,,0.00,22.100000,,2013-12-14 23:53:00,
2013-12-14 15:02:00,26.0,17.0,-100.00,WNW,291,7.0,11.0,68,0.00,,,0.00,22.100000,,2013-12-15 00:02:00,
2013-12-14 15:11:00,26.0,17.0,-100.00,WNW,291,7.0,11.0,68,0.00,,,0.00,22.100000,,2013-12-15 00:11:00,
2013-12-14 15:22:00,26.0,17.0,-100.00,WNW,291,7.0,11.0,68,0.00,,,0.00,22.100000,,2013-12-15 00:22:00,
2013-12-14 15:52:00,25.0,14.0,-100.00,WNW,300,19.0,36.0,62,0.00,,,0.00,6.800000,,2013-12-15 00:52:00,
2013-12-14 16:01:00,25.0,14.0,-100.00,WNW,300,19.0,36.0,62,0.00,,,0.00,6.800000,,2013-12-15 01:01:00,
2013-12-14 16:11:00,25.0,14.0,-100.00,WNW,300,19.0,36.0,62,0.00,,,0.00,6.800000,,2013-12-15 01:11:00,
2013-12-14 16:21:00,25.0,14.0,-100.00,WNW,300,19.0,36.0,62,0.00,,,0.00,6.800000,,2013-12-15 01:21:00,
2013-12-14 16:52:00,26.0,10.0,-100.00,NW,320,20.0,39.0,50,0.00,,,0.00,2.400000,,2013-12-15 01:52:00,
2013-12-14 17:01:00,26.0,10.0,-100.00,NW,320,20.0,39.0,50,0.00,,,0.00,2.400000,,2013-12-15 02:01:00,
2013-12-14 17:11:00,26.0,10.0,-100.00,NW,320,20.0,39.0,50,0.00,,,0.00,2.400000,,2013-12-15 02:11:00,
2013-12-14 17:22:00,26.0,10.0,-100.00,NW,320,20.0,39.0,50,0.00,,,0.00,2.400000,,2013-12-15 02:22:00,
2013-12-14 17:52:00,26.0,10.0,-100.00,NNW,336,11.0,32.0,49,0.00,,,0.00,0.800000,,2013-12-15 02:52:00,
2013-12-14 18:02:00,26.0,10.0,-100.00,NNW,336,11.0,32.0,49,0.00,,,0.00,0.800000,,2013-12-15 03:02:00,
2013-12-14 18:12:00,26.0,10.0,-100.00,NNW,336,11.0,32.0,49,0.00,,,0.00,0.800000,,2013-12-15 03:12:00,
2013-12-14 18:22:00,26.0,10.0,-100.00,NNW,336,11.0,32.0,49,0.00,,,0.00,0.800000,,2013-12-15 03:22:00,
2013-12-14 18:54:00,26.0,8.0,-100.00,NNE,15,11.0,27.0,46,0.00,,,0.00,0.800000,,2013-12-15 03:54:00,
2013-12-14 19:02:00,-999.0,-99.9,-100.00,NNE,15,11.0,27.0,-999,0.00,,,0.00,0.800000,,2013-12-15 04:02:00,
2013-12-14 19:13:00,26.0,8.0,-100.00,NNE,15,11.0,27.0,46,0.00,,,0.00,0.800000,,2013-12-15 04:13:00,
2013-12-14 19:23:00,26.0,8.0,-100.00,NNE,15,11.0,27.0,46,0.00,,,0.00,0.800000,,2013-12-15 04:23:00,
2013-12-14 19:53:00,26.0,11.0,-100.00,North,3,10.0,21.0,53,0.00,,,0.00,0.800000,,2013-12-15 04:53:00,
2013-12-14 20:02:00,26.0,11.0,-100.00,North,3,10.0,21.0,53,0.00,,,0.00,0.800000,,2013-12-15 05:02:00,
2013-12-14 20:12:00,26.0,11.0,-100.00,North,3,10.0,21.0,53,0.00,,,0.00,0.800000,,2013-12-15 05:12:00,
2013-12-14 20:22:00,26.0,11.0,-100.00,North,3,10.0,21.0,53,0.00,,,0.00,0.800000,,2013-12-15 05:22:00,
2013-12-14 20:53:00,25.0,10.0,-100.00,North,355,6.0,15.0,52,0.00,,,0.00,0.800000,,2013-12-15 05:53:00,
2013-12-14 21:02:00,25.0,10.0,-100.00,North,355,6.0,15.0,52,0.00,,,0.00,0.800000,,2013-12-15 06:02:00,
2013-12-14 21:12:00,25.0,10.0,-100.00,North,355,6.0,15.0,52,0.00,,,0.00,0.800000,,2013-12-15 06:12:00,
2013-12-14 21:21:00,25.0,10.0,-100.00,North,355,6.0,15.0,52,0.00,,,0.00,0.800000,,2013-12-15 06:21:00,
2013-12-14 21:52:00,24.0,10.0,-100.00,NNW,339,15.0,22.0,54,0.00,,,0.00,0.800000,,2013-12-15 06:52:00,
2013-12-14 22:02:00,24.0,10.0,-100.00,NNW,339,15.0,22.0,54,0.00,,,0.00,0.800000,,2013-12-15 07:02:00,
2013-12-14 22:11:00,24.0,10.0,-100.00,NNW,339,15.0,22.0,54,0.00,,,0.00,0.800000,,2013-12-15 07:11:00,
2013-12-14 22:21:00,24.0,10.0,-100.00,NNW,339,15.0,22.0,54,0.00,,,0.00,0.800000,,2013-12-15 07:21:00,
2013-12-14 22:52:00,23.0,9.0,-100.00,NNW,347,13.0,27.0,54,0.00,,,-99.99,0.800000,,2013-12-15 07:52:00,
2013-12-14 23:02:00,23.0,9.0,-100.00,NNW,347,13.0,27.0,54,0.00,,,-99.99,0.800000,,2013-12-15 08:02:00,
2013-12-14 23:11:00,23.0,9.0,-100.00,NNW,347,13.0,27.0,54,0.00,,,-99.99,0.800000,,2013-12-15 08:11:00,
2013-12-14 23:22:00,23.0,9.0,-100.00,NNW,347,13.0,27.0,54,0.00,,,-99.99,0.800000,,2013-12-15 08:22:00,
2013-12-14 23:52:00,23.0,8.0,-100.00,North,6,14.0,21.0,51,0.00,,,0.00,0.800000,,2013-12-15 08:52:00,